EW2785 Weather Reports


Display with metric or nautical units.
time (UTC)temp
F
wind
direction
speed
MPH
gust
MPH
rain 1hr
in
rain 24hr
in
rain mn
in
humidity
%
barometer
mb
20260508060006 33 355 0.0 0.0 0.00 0.00 0.00 85 1008.9
20260508054510 34 355 0.0 0.0 0.00 0.00 0.00 85 1008.9
20260508053003 34 355 0.0 1.0 0.00 0.00 0.00 85 1008.9
20260508051501 34 355 0.0 0.0 0.00 0.00 0.00 83 1009.1
20260508050100 34 355 0.0 0.0 0.00 0.00 0.00 83 1009.0
20260508044557 34 355 0.0 0.0 0.00 0.00 0.00 82 1009.2
20260508043100 35 355 0.0 1.0 0.00 0.00 0.00 80 1009.3
20260508041553 35 355 0.0 0.0 0.00 0.00 0.00 79 1009.2
20260508040049 36 355 0.0 1.0 0.00 0.00 0.00 78 1009.2
20260508034551 37 355 0.0 0.0 0.00 0.00 0.00 77 1009.1
20260508033045 37 355 0.0 0.0 0.00 0.00 0.00 75 1009.1
20260508031543 38 355 0.0 0.0 0.00 0.00 0.00 74 1009.0
20260508030043 39 355 0.0 1.0 0.00 0.00 0.00 72 1009.1
20260508024542 40 355 0.0 1.0 0.00 0.00 0.00 71 1009.0
20260508023034 41 355 0.0 1.0 0.00 0.00 0.00 68 1009.0
20260508021530 42 355 0.0 2.0 0.00 0.00 0.00 66 1008.9
20260508020031 44 349 1.0 2.0 0.00 0.04 0.00 62 1008.8
20260508014536 45 348 0.0 1.0 0.00 0.04 0.00 56 1008.5
20260508013029 46 348 0.0 3.0 0.00 0.04 0.00 54 1008.6
20260508011529 47 273 0.0 7.0 0.00 0.04 0.00 49 1008.5
20260508010044 47 177 0.0 2.0 0.00 0.07 0.00 49 1008.3
20260508004531 47 306 0.0 4.0 0.00 0.07 0.00 47 1008.2
20260508003028 48 215 0.0 3.0 0.00 0.07 0.00 46 1008.0
20260508001529 49 236 0.0 3.0 0.00 0.07 0.00 45 1007.9
20260508000026 50 298 0.0 4.0 0.00 0.11 0.00 45 1007.8
20260507234527 50 223 0.0 4.0 0.00 0.11 0.00 43 1007.7
20260507233028 51 192 0.0 7.0 0.00 0.11 0.00 41 1007.4
20260507231525 52 142 2.0 12.0 0.00 0.11 0.00 39 1007.4
20260507230032 53 181 2.0 10.0 0.00 0.12 0.00 39 1007.3
20260507224524 53 238 3.0 12.0 0.00 0.12 0.00 40 1007.3
20260507223024 54 283 0.0 7.0 0.00 0.12 0.00 38 1007.2
20260507221524 55 207 2.0 10.0 0.00 0.12 0.00 37 1007.1
20260507220025 55 171 1.0 11.0 0.00 0.12 0.00 38 1007.0
20260507214522 56 169 4.0 12.0 0.00 0.12 0.00 36 1007.0
20260507213023 56 213 1.0 7.0 0.00 0.12 0.00 38 1006.8
20260507211533 56 243 4.0 14.0 0.00 0.12 0.00 37 1006.8
20260507210020 56 197 3.0 9.0 0.00 0.15 0.00 38 1006.8
20260507204523 56 182 2.0 8.0 0.00 0.15 0.00 38 1006.8
20260507203023 55 200 1.0 6.0 0.00 0.15 0.00 42 1006.7
20260507201518 56 159 1.0 11.0 0.00 0.15 0.00 38 1006.7
20260507200016 54 175 1.0 8.0 0.00 0.22 0.00 41 1006.9
20260507194516 56 209 1.0 12.0 0.00 0.22 0.00 38 1007.0
20260507193014 56 255 1.0 9.0 0.00 0.22 0.00 41 1007.2
20260507191514 56 191 3.0 12.0 0.00 0.22 0.00 40 1007.3
20260507190012 56 176 1.0 5.0 0.00 0.30 0.00 44 1007.3
20260507184508 55 173 3.0 12.0 0.00 0.30 0.00 45 1007.7
20260507183012 54 167 7.0 13.0 0.00 0.30 0.00 43 1007.7
20260507181507 54 180 1.0 10.0 0.00 0.30 0.00 42 1007.8
20260507180006 55 207 2.0 10.0 0.00 0.42 0.00 44 1007.9
20260507174506 54 192 5.0 10.0 0.00 0.42 0.00 43 1007.8
20260507173006 54 202 1.0 24.0 0.00 0.42 0.00 44 1007.9
20260507171612 54 165 3.0 14.0 0.00 0.42 0.00 42 1008.1
20260507170058 52 224 3.0 16.0 0.00 0.55 0.00 44 1008.4
20260507164557 53 166 6.0 20.0 0.00 0.55 0.00 44 1008.7
20260507163059 53 277 3.0 19.0 0.00 0.55 0.00 44 1008.8
20260507161556 52 196 2.0 13.0 0.00 0.55 0.00 48 1008.9
20260507160054 51 236 4.0 15.0 0.00 0.67 0.00 56 1009.2
20260507154550 51 202 5.0 12.0 0.00 0.67 0.00 49 1009.5
20260507153056 51 355 2.0 12.0 0.00 0.67 0.00 51 1009.7
20260507151548 50 299 2.0 16.0 0.00 0.67 0.00 53 1009.8
20260507150043 49 221 4.0 14.0 0.00 0.77 0.00 52 1009.7
20260507144540 49 192 2.0 9.0 0.00 0.77 0.00 56 1009.6
20260507143040 48 192 1.0 7.0 0.00 0.77 0.00 61 1009.5
20260507141542 47 190 1.0 9.0 0.00 0.77 0.00 66 1009.7
20260507140032 47 173 2.0 6.0 0.00 0.86 0.00 69 1009.7
20260507134529 46 214 2.0 8.0 0.00 0.86 0.00 70 1009.6
20260507133027 46 149 1.0 10.0 0.00 0.86 0.00 72 1009.7
20260507131526 45 320 0.0 9.0 0.00 0.86 0.00 76 1009.7
20260507130026 45 215 1.0 10.0 0.00 0.91 0.00 79 1009.5
20260507124526 44 212 3.0 14.0 0.00 0.91 0.00 85 1009.3
20260507123015 44 286 2.0 5.0 0.00 0.91 0.00 91 1009.1
20260507121513 44 190 2.0 5.0 0.00 0.91 0.00 93 1009.3
20260507120010 43 192 1.0 7.0 0.00 0.91 0.00 94 1009.1
20260507114509 43 188 1.0 5.0 0.00 0.91 0.00 94 1008.8
20260507113012 43 184 0.0 0.0 0.00 0.91 0.00 94 1008.8
20260507111507 43 184 0.0 1.0 0.00 0.91 0.00 94 1008.7
20260507110015 43 184 0.0 4.0 0.00 0.91 0.00 94 1008.7
20260507104505 43 196 0.0 0.0 0.00 0.91 0.00 94 1008.6
20260507103004 43 196 0.0 0.0 0.00 0.91 0.00 94 1008.7
20260507101504 43 196 0.0 2.0 0.00 0.91 0.00 94 1008.5
20260507100003 43 196 0.0 0.0 0.00 0.91 0.00 94 1008.4
20260507094502 43 196 0.0 0.0 0.00 0.91 0.00 94 1008.4
20260507093002 43 196 0.0 0.0 0.00 0.91 0.00 94 1008.4
20260507091501 43 196 0.0 0.0 0.00 0.91 0.00 94 1008.6
20260507090106 43 196 0.0 0.0 0.00 0.91 0.00 94 1008.5
20260507084600 43 196 0.0 2.0 0.00 0.91 0.00 94 1008.8
20260507083100 43 277 0.0 1.0 0.00 0.91 0.00 94 1008.8
20260507081559 43 277 0.0 0.0 0.00 0.91 0.00 94 1008.6
20260507074612 43 296 0.0 0.0 0.00 0.91 0.00 94 1008.9
20260507073056 43 296 0.0 0.0 0.00 0.91 0.00 94 1008.7
20260507071556 43 296 0.0 0.0 0.00 0.91 0.00 94 1008.4
20260507070111 43 296 0.0 0.0 0.00 0.92 0.00 94 1008.3
20260507064605 43 296 0.0 0.0 0.00 0.92 0.00 94 1008.4
20260507063059 43 296 0.0 0.0 0.00 0.92 0.00 94 1008.4
20260507061554 43 296 0.0 0.0 0.00 0.92 0.00 94 1008.3